Precipitable_Water
0.64 0.64 0.64 0.64 0.64 0.66 0.66 0.68 0.68 0.68 0.66 0.66 0.66 0.66 0.64 0.64 0.62 0.62 0.62 0.62 0.60 0.60 0.58 0.58 0.56 0.54 0.54 0.52 0.52 0.50 0.50 0.48 0.48 0.46 0.44 0.42 0.42 0.40 0.38 0.38 0.36 0.36 0.36 0.34 0.34 0.34 0.34 0.34 0.32 0.32 0.30 0.30 0.30 0.28 0.28 0.26 0.26 0.26 0.26 0.26 0.26 0.26 0.26 0.26 0.26 0.24 0.24 0.24 0.22
0.64 0.64 0.64 0.64 0.66 0.66 0.66 0.68 0.68 0.68 0.66 0.66 0.66 0.66 0.64 0.64 0.62 0.62 0.62 0.62 0.60 0.60 0.58 0.56 0.56 0.54 0.52 0.52 0.50 0.50 0.48 0.48 0.46 0.46 0.44 0.42 0.40 0.40 0.38 0.38 0.36 0.36 0.36 0.34 0.34 0.34 0.34 0.34 0.32 0.30 0.30 0.28 0.28 0.28 0.26 0.26 0.26 0.26 0.26 0.26 0.26 0.26 0.26 0.26 0.26 0.24 0.24 0.24 0.22
0.64 0.64 0.64 0.66 0.66 0.66 0.66 0.66 0.66 0.66 0.66 0.66 0.66 0.66 0.64 0.64 0.64 0.62 0.62 0.62 0.60 0.60 0.58 0.56 0.54 0.54 0.52 0.52 0.52 0.50 0.48 0.48 0.46 0.44 0.44 0.42 0.40 0.38 0.38 0.38 0.36 0.36 0.34 0.34 0.34 0.34 0.34 0.32 0.30 0.30 0.28 0.28 0.28 0.26 0.26 0.26 0.26 0.26 0.26 0.26 0.26 0.26 0.26 0.26 0.26 0.24 0.24 0.24 0.22
0.64 0.64 0.64 0.66 0.66 0.66 0.66 0.66 0.66 0.66 0.66 0.66 0.66 0.66 0.66 0.64 0.64 0.62 0.62 0.62 0.60 0.60 0.58 0.56 0.54 0.54 0.54 0.52 0.52 0.50 0.48 0.48 0.46 0.44 0.44 0.42 0.40 0.38 0.38 0.36 0.36 0.36 0.34 0.34 0.34 0.34 0.32 0.32 0.30 0.30 0.28 0.28 0.28 0.26 0.26 0.26 0.26 0.26 0.26 0.26 0.26 0.26 0.26 0.26 0.26 0.24 0.24 0.24 0.22
0.64 0.64 0.64 0.66 0.66 0.66 0.68 0.68 0.68 0.66 0.66 0.66 0.66 0.66 0.66 0.64 0.64 0.64 0.62 0.62 0.60 0.60 0.58 0.56 0.56 0.54 0.54 0.54 0.52 0.50 0.48 0.46 0.46 0.44 0.42 0.42 0.40 0.38 0.38 0.36 0.36 0.36 0.34 0.34 0.34 0.32 0.32 0.30 0.30 0.28 0.28 0.28 0.28 0.26 0.26 0.26 0.26 0.26 0.26 0.28 0.28 0.26 0.26 0.26 0.24 0.24 0.24 0.22 0.22
0.64 0.64 0.66 0.66 0.68 0.68 0.68 0.68 0.68 0.66 0.66 0.66 0.66 0.66 0.66 0.66 0.64 0.64 0.64 0.62 0.60 0.60 0.58 0.56 0.56 0.56 0.56 0.54 0.52 0.50 0.48 0.46 0.44 0.44 0.42 0.40 0.38 0.38 0.36 0.36 0.36 0.34 0.34 0.34 0.32 0.32 0.30 0.30 0.28 0.28 0.28 0.28 0.28 0.28 0.28 0.28 0.28 0.28 0.26 0.26 0.26 0.26 0.26 0.26 0.24 0.24 0.24 0.22 0.22
0.64 0.64 0.66 0.68 0.68 0.68 0.68 0.68 0.68 0.66 0.66 0.66 0.66 0.66 0.66 0.66 0.66 0.64 0.64 0.62 0.62 0.60 0.60 0.58 0.58 0.58 0.56 0.54 0.52 0.50 0.48 0.46 0.44 0.42 0.42 0.40 0.38 0.38 0.36 0.36 0.34 0.34 0.34 0.32 0.32 0.30 0.30 0.28 0.28 0.28 0.28 0.28 0.28 0.28 0.28 0.28 0.28 0.28 0.26 0.26 0.26 0.26 0.26 0.26 0.24 0.24 0.22 0.22 0.22
0.64 0.66 0.66 0.68 0.68 0.68 0.68 0.68 0.66 0.66 0.66 0.66 0.66 0.66 0.66 0.66 0.66 0.64 0.64 0.64 0.62 0.62 0.60 0.60 0.60 0.58 0.56 0.54 0.52 0.52 0.48 0.46 0.44 0.42 0.40 0.40 0.38 0.36 0.36 0.34 0.34 0.34 0.32 0.32 0.30 0.30 0.28 0.28 0.28 0.28 0.28 0.28 0.28 0.28 0.28 0.28 0.28 0.28 0.26 0.26 0.26 0.26 0.26 0.26 0.24 0.24 0.24 0.22 0.22
0.64 0.66 0.66 0.68 0.68 0.68 0.66 0.66 0.66 0.66 0.66 0.66 0.66 0.66 0.66 0.66 0.66 0.64 0.64 0.62 0.62 0.62 0.62 0.62 0.60 0.58 0.56 0.56 0.54 0.52 0.50 0.46 0.44 0.42 0.40 0.38 0.38 0.36 0.36 0.34 0.34 0.32 0.32 0.32 0.30 0.30 0.28 0.28 0.28 0.28 0.28 0.28 0.28 0.28 0.28 0.28 0.28 0.28 0.26 0.26 0.26 0.26 0.26 0.24 0.24 0.24 0.24 0.24 0.22
0.64 0.66 0.66 0.66 0.66 0.66 0.66 0.66 0.66 0.66 0.66 0.68 0.68 0.68 0.68 0.66 0.66 0.64 0.64 0.64 0.62 0.62 0.62 0.62 0.60 0.58 0.56 0.56 0.54 0.52 0.50 0.46 0.42 0.40 0.40 0.38 0.38 0.36 0.36 0.34 0.32 0.32 0.32 0.30 0.30 0.28 0.28 0.28 0.28 0.28 0.28 0.28 0.28 0.28 0.28 0.28 0.28 0.28 0.26 0.26 0.26 0.26 0.24 0.24 0.24 0.24 0.24 0.24 0.22
0.66 0.66 0.66 0.66 0.66 0.66 0.66 0.66 0.66 0.66 0.68 0.68 0.68 0.68 0.68 0.66 0.66 0.64 0.64 0.62 0.62 0.62 0.62 0.62 0.60 0.58 0.58 0.56 0.54 0.52 0.50 0.48 0.44 0.40 0.38 0.38 0.36 0.36 0.34 0.34 0.32 0.32 0.30 0.30 0.30 0.28 0.28 0.28 0.28 0.28 0.28 0.28 0.28 0.28 0.28 0.28 0.28 0.28 0.26 0.26 0.26 0.26 0.24 0.24 0.24 0.24 0.24 0.24 0.22
0.66 0.66 0.66 0.66 0.66 0.66 0.66 0.66 0.66 0.66 0.68 0.68 0.68 0.68 0.66 0.66 0.64 0.64 0.62 0.62 0.62 0.62 0.62 0.62 0.60 0.58 0.58 0.56 0.54 0.52 0.50 0.48 0.42 0.40 0.38 0.38 0.36 0.36 0.34 0.34 0.32 0.30 0.30 0.30 0.28 0.28 0.28 0.28 0.28 0.28 0.28 0.28 0.28 0.28 0.28 0.28 0.28 0.26 0.26 0.26 0.26 0.24 0.24 0.24 0.24 0.24 0.24 0.24 0.24
0.66 0.66 0.66 0.66 0.66 0.66 0.66 0.66 0.66 0.66 0.68 0.68 0.66 0.66 0.66 0.66 0.64 0.62 0.62 0.62 0.62 0.62 0.60 0.60 0.60 0.58 0.58 0.56 0.54 0.52 0.48 0.46 0.42 0.40 0.38 0.38 0.36 0.36 0.34 0.34 0.32 0.30 0.30 0.30 0.28 0.28 0.28 0.28 0.28 0.28 0.28 0.28 0.28 0.28 0.28 0.28 0.28 0.26 0.26 0.26 0.24 0.24 0.24 0.24 0.24 0.24 0.24 0.24 0.24
0.66 0.66 0.66 0.66 0.66 0.66 0.66 0.66 0.66 0.68 0.68 0.66 0.66 0.66 0.66 0.64 0.64 0.62 0.62 0.62 0.60 0.60 0.60 0.60 0.60 0.58 0.58 0.56 0.52 0.50 0.48 0.46 0.44 0.40 0.38 0.36 0.36 0.34 0.34 0.32 0.30 0.30 0.30 0.28 0.28 0.28 0.28 0.28 0.28 0.28 0.28 0.28 0.28 0.28 0.28 0.28 0.28 0.26 0.26 0.24 0.24 0.24 0.24 0.24 0.24 0.24 0.24 0.24 0.22
0.64 0.66 0.66 0.66 0.66 0.66 0.66 0.66 0.68 0.68 0.68 0.66 0.66 0.66 0.64 0.62 0.62 0.62 0.60 0.60 0.60 0.60 0.60 0.60 0.60 0.58 0.56 0.54 0.52 0.50 0.46 0.44 0.42 0.40 0.38 0.36 0.34 0.34 0.32 0.32 0.30 0.30 0.30 0.28 0.28 0.28 0.28 0.28 0.28 0.28 0.28 0.28 0.28 0.28 0.28 0.28 0.28 0.26 0.26 0.24 0.24 0.24 0.24 0.24 0.24 0.24 0.24 0.24 0.22
0.64 0.64 0.66 0.66 0.66 0.66 0.68 0.68 0.68 0.68 0.66 0.66 0.66 0.64 0.62 0.62 0.62 0.60 0.60 0.60 0.60 0.60 0.60 0.60 0.60 0.58 0.54 0.54 0.50 0.48 0.46 0.44 0.42 0.40 0.36 0.34 0.34 0.32 0.32 0.30 0.30 0.30 0.30 0.28 0.28 0.28 0.28 0.28 0.28 0.28 0.28 0.28 0.28 0.28 0.28 0.28 0.26 0.26 0.26 0.26 0.24 0.24 0.24 0.24 0.24 0.24 0.24 0.24 0.24
0.64 0.66 0.66 0.66 0.66 0.68 0.68 0.68 0.68 0.68 0.66 0.64 0.64 0.62 0.62 0.62 0.60 0.60 0.60 0.60 0.60 0.60 0.60 0.60 0.58 0.56 0.54 0.52 0.48 0.46 0.44 0.42 0.40 0.38 0.36 0.34 0.32 0.32 0.30 0.30 0.30 0.30 0.30 0.28 0.28 0.28 0.28 0.28 0.28 0.28 0.28 0.28 0.28 0.28 0.28 0.28 0.26 0.26 0.26 0.26 0.24 0.24 0.24 0.24 0.24 0.24 0.24 0.24 0.24
0.64 0.66 0.66 0.66 0.68 0.68 0.68 0.68 0.68 0.66 0.64 0.64 0.62 0.62 0.60 0.60 0.60 0.60 0.60 0.60 0.60 0.60 0.60 0.60 0.58 0.56 0.54 0.50 0.48 0.44 0.42 0.40 0.38 0.36 0.34 0.32 0.32 0.32 0.30 0.30 0.30 0.30 0.30 0.30 0.28 0.28 0.28 0.28 0.28 0.30 0.30 0.30 0.28 0.28 0.28 0.26 0.26 0.26 0.26 0.26 0.26 0.24 0.24 0.24 0.24 0.24 0.24 0.24 0.22
0.66 0.66 0.66 0.68 0.68 0.68 0.68 0.68 0.66 0.66 0.64 0.62 0.62 0.60 0.60 0.60 0.60 0.60 0.60 0.60 0.60 0.60 0.60 0.58 0.56 0.54 0.52 0.48 0.46 0.44 0.42 0.38 0.36 0.36 0.34 0.32 0.32 0.30 0.30 0.30 0.30 0.30 0.30 0.30 0.28 0.28 0.28 0.28 0.30 0.30 0.30 0.30 0.28 0.28 0.26 0.26 0.26 0.26 0.26 0.26 0.26 0.24 0.24 0.24 0.24 0.24 0.24 0.22 0.22
0.66 0.66 0.68 0.68 0.68 0.68 0.68 0.66 0.66 0.64 0.62 0.62 0.60 0.60 0.60 0.58 0.58 0.60 0.60 0.60 0.60 0.60 0.58 0.56 0.54 0.52 0.50 0.46 0.44 0.42 0.40 0.38 0.36 0.34 0.32 0.32 0.30 0.30 0.30 0.30 0.30 0.30 0.30 0.28 0.28 0.28 0.28 0.30 0.30 0.30 0.30 0.28 0.28 0.28 0.26 0.26 0.26 0.26 0.26 0.26 0.24 0.24 0.24 0.24 0.24 0.24 0.22 0.22 0.22
0.66 0.68 0.68 0.68 0.68 0.66 0.66 0.66 0.64 0.62 0.62 0.60 0.60 0.60 0.58 0.58 0.60 0.60 0.60 0.62 0.60 0.58 0.58 0.56 0.54 0.52 0.48 0.46 0.42 0.40 0.38 0.36 0.34 0.32 0.32 0.32 0.30 0.30 0.30 0.30 0.30 0.30 0.28 0.28 0.28 0.28 0.28 0.30 0.30 0.30 0.28 0.28 0.28 0.26 0.26 0.26 0.26 0.26 0.26 0.24 0.24 0.24 0.24 0.24 0.22 0.22 0.22 0.22 0.22
0.68 0.68 0.68 0.66 0.66 0.66 0.64 0.64 0.64 0.62 0.60 0.60 0.60 0.58 0.58 0.58 0.60 0.60 0.60 0.60 0.60 0.58 0.56 0.54 0.52 0.50 0.48 0.46 0.40 0.38 0.36 0.34 0.32 0.32 0.32 0.32 0.30 0.30 0.30 0.30 0.30 0.28 0.28 0.28 0.28 0.28 0.28 0.30 0.28 0.28 0.28 0.28 0.26 0.26 0.26 0.26 0.26 0.26 0.24 0.24 0.24 0.24 0.24 0.22 0.22 0.22 0.22 0.22 0.20
0.66 0.66 0.66 0.66 0.66 0.64 0.64 0.62 0.62 0.60 0.60 0.60 0.58 0.58 0.58 0.60 0.60 0.60 0.60 0.60 0.58 0.56 0.54 0.52 0.50 0.48 0.46 0.44 0.38 0.36 0.34 0.32 0.32 0.32 0.32 0.30 0.30 0.30 0.30 0.30 0.30 0.28 0.28 0.28 0.28 0.28 0.28 0.28 0.28 0.28 0.28 0.26 0.26 0.26 0.26 0.26 0.26 0.26 0.24 0.24 0.24 0.22 0.22 0.22 0.22 0.20 0.20 0.20 0.20
0.66 0.66 0.66 0.64 0.64 0.64 0.62 0.62 0.60 0.60 0.60 0.58 0.58 0.58 0.60 0.60 0.60 0.60 0.60 0.58 0.56 0.54 0.52 0.50 0.48 0.46 0.44 0.40 0.36 0.34 0.32 0.32 0.32 0.30 0.30 0.30 0.30 0.30 0.30 0.30 0.28 0.28 0.28 0.28 0.28 0.28 0.28 0.28 0.28 0.28 0.28 0.26 0.26 0.26 0.26 0.26 0.26 0.24 0.24 0.24 0.22 0.22 0.20 0.20 0.20 0.20 0.20 0.20 0.20
0.64 0.64 0.64 0.64 0.62 0.62 0.62 0.60 0.60 0.60 0.58 0.58 0.58 0.60 0.60 0.60 0.60 0.60 0.58 0.54 0.54 0.52 0.50 0.48 0.46 0.44 0.40 0.38 0.36 0.34 0.32 0.32 0.30 0.30 0.30 0.30 0.30 0.28 0.28 0.28 0.28 0.28 0.28 0.26 0.28 0.28 0.28 0.28 0.28 0.28 0.28 0.26 0.26 0.26 0.26 0.26 0.26 0.24 0.24 0.24 0.22 0.20 0.20 0.20 0.20 0.20 0.20 0.20 0.20
0.62 0.62 0.62 0.62 0.62 0.62 0.60 0.60 0.60 0.60 0.58 0.60 0.60 0.60 0.60 0.60 0.60 0.58 0.56 0.52 0.52 0.50 0.48 0.46 0.42 0.40 0.38 0.36 0.34 0.32 0.32 0.32 0.30 0.30 0.30 0.28 0.28 0.28 0.28 0.28 0.28 0.26 0.26 0.26 0.26 0.26 0.26 0.28 0.28 0.28 0.28 0.26 0.26 0.26 0.26 0.26 0.24 0.24 0.24 0.22 0.22 0.20 0.20 0.20 0.20 0.20 0.20 0.20 0.20
0.62 0.62 0.62 0.62 0.60 0.60 0.60 0.60 0.60 0.60 0.60 0.60 0.60 0.60 0.60 0.60 0.58 0.56 0.54 0.50 0.50 0.48 0.44 0.42 0.40 0.38 0.36 0.32 0.32 0.32 0.30 0.30 0.30 0.30 0.28 0.28 0.28 0.28 0.28 0.28 0.28 0.26 0.24 0.24 0.26 0.26 0.26 0.26 0.26 0.28 0.28 0.28 0.26 0.26 0.24 0.24 0.24 0.24 0.22 0.22 0.20 0.20 0.20 0.20 0.20 0.20 0.20 0.20 0.20
0.60 0.60 0.60 0.60 0.60 0.60 0.60 0.60 0.60 0.60 0.60 0.60 0.60 0.60 0.58 0.58 0.56 0.54 0.52 0.50 0.48 0.44 0.42 0.40 0.38 0.34 0.32 0.32 0.32 0.32 0.30 0.30 0.28 0.28 0.28 0.28 0.28 0.28 0.26 0.26 0.26 0.24 0.24 0.24 0.24 0.24 0.26 0.26 0.26 0.26 0.28 0.28 0.26 0.26 0.24 0.24 0.24 0.22 0.22 0.20 0.20 0.20 0.20 0.20 0.20 0.20 0.20 0.20 0.20
0.60 0.60 0.60 0.60 0.60 0.60 0.60 0.60 0.60 0.60 0.60 0.60 0.60 0.58 0.56 0.56 0.54 0.52 0.50 0.48 0.44 0.42 0.38 0.36 0.34 0.32 0.32 0.32 0.30 0.30 0.30 0.28 0.28 0.28 0.28 0.28 0.26 0.26 0.26 0.24 0.24 0.24 0.22 0.24 0.24 0.24 0.26 0.26 0.26 0.26 0.26 0.26 0.26 0.26 0.26 0.24 0.22 0.22 0.20 0.20 0.20 0.20 0.20 0.20 0.20 0.20 0.20 0.20 0.20
0.60 0.60 0.60 0.60 0.60 0.60 0.60 0.60 0.60 0.60 0.60 0.58 0.58 0.56 0.54 0.54 0.52 0.50 0.48 0.46 0.42 0.38 0.34 0.34 0.32 0.32 0.32 0.30 0.30 0.30 0.28 0.28 0.28 0.28 0.26 0.26 0.26 0.24 0.24 0.24 0.22 0.22 0.22 0.22 0.24 0.24 0.26 0.26 0.26 0.26 0.26 0.26 0.26 0.26 0.26 0.24 0.22 0.22 0.20 0.20 0.20 0.20 0.20 0.20 0.20 0.20 0.20 0.18 0.18
0.62 0.62 0.62 0.62 0.62 0.60 0.60 0.60 0.60 0.58 0.58 0.56 0.56 0.54 0.52 0.50 0.50 0.48 0.46 0.42 0.36 0.34 0.34 0.32 0.32 0.30 0.30 0.30 0.28 0.28 0.28 0.28 0.26 0.26 0.26 0.24 0.24 0.22 0.22 0.22 0.22 0.20 0.22 0.22 0.24 0.24 0.26 0.26 0.26 0.26 0.26 0.26 0.26 0.26 0.24 0.24 0.22 0.22 0.20 0.20 0.20 0.18 0.18 0.18 0.18 0.18 0.18 0.18 0.18
0.62 0.62 0.62 0.62 0.60 0.60 0.60 0.58 0.58 0.56 0.56 0.54 0.52 0.52 0.50 0.46 0.44 0.42 0.40 0.38 0.34 0.34 0.32 0.32 0.30 0.30 0.28 0.28 0.28 0.28 0.26 0.26 0.26 0.26 0.24 0.22 0.22 0.22 0.20 0.20 0.20 0.20 0.22 0.22 0.24 0.24 0.24 0.24 0.24 0.24 0.24 0.26 0.26 0.24 0.24 0.22 0.22 0.22 0.22 0.20 0.20 0.18 0.18 0.18 0.18 0.18 0.18 0.18 0.17
0.62 0.62 0.62 0.60 0.60 0.60 0.58 0.58 0.54 0.52 0.52 0.50 0.48 0.48 0.46 0.44 0.42 0.40 0.38 0.36 0.34 0.32 0.32 0.30 0.30 0.28 0.28 0.28 0.26 0.26 0.26 0.26 0.24 0.24 0.22 0.22 0.20 0.20 0.20 0.20 0.20 0.22 0.22 0.22 0.24 0.24 0.24 0.24 0.24 0.24 0.24 0.26 0.24 0.24 0.24 0.22 0.22 0.22 0.20 0.20 0.20 0.18 0.18 0.18 0.18 0.18 0.17 0.17 0.17
0.60 0.60 0.60 0.60 0.60 0.58 0.58 0.56 0.52 0.50 0.50 0.48 0.46 0.44 0.42 0.40 0.38 0.36 0.34 0.34 0.32 0.32 0.30 0.30 0.28 0.28 0.28 0.26 0.26 0.26 0.24 0.24 0.24 0.22 0.22 0.20 0.20 0.20 0.20 0.20 0.20 0.22 0.22 0.22 0.24 0.24 0.24 0.24 0.24 0.24 0.24 0.24 0.24 0.24 0.22 0.22 0.22 0.22 0.20 0.20 0.18 0.18 0.18 0.18 0.18 0.18 0.17 0.17 0.18
0.60 0.60 0.60 0.60 0.58 0.56 0.56 0.54 0.50 0.48 0.46 0.44 0.42 0.40 0.38 0.36 0.34 0.34 0.32 0.32 0.32 0.30 0.30 0.28 0.28 0.28 0.28 0.26 0.26 0.24 0.24 0.22 0.22 0.20 0.20 0.20 0.20 0.20 0.20 0.20 0.22 0.22 0.22 0.22 0.22 0.22 0.24 0.24 0.24 0.24 0.24 0.24 0.24 0.22 0.22 0.22 0.22 0.20 0.20 0.20 0.18 0.18 0.18 0.18 0.18 0.18 0.18 0.18 0.18
0.60 0.60 0.58 0.58 0.56 0.54 0.52 0.50 0.48 0.46 0.44 0.40 0.38 0.36 0.34 0.34 0.32 0.32 0.32 0.32 0.32 0.30 0.28 0.28 0.28 0.26 0.26 0.24 0.24 0.22 0.22 0.22 0.20 0.20 0.20 0.20 0.20 0.20 0.20 0.20 0.22 0.22 0.22 0.22 0.22 0.22 0.22 0.22 0.22 0.22 0.24 0.24 0.22 0.22 0.22 0.22 0.20 0.20 0.20 0.18 0.18 0.18 0.18 0.18 0.18 0.18 0.18 0.18 0.20
0.58 0.58 0.56 0.56 0.54 0.52 0.50 0.46 0.44 0.42 0.40 0.36 0.36 0.34 0.32 0.32 0.32 0.32 0.32 0.32 0.30 0.30 0.28 0.28 0.26 0.26 0.24 0.24 0.22 0.22 0.20 0.20 0.20 0.20 0.20 0.20 0.20 0.20 0.20 0.20 0.22 0.22 0.22 0.22 0.22 0.22 0.22 0.22 0.22 0.22 0.24 0.24 0.22 0.22 0.22 0.20 0.20 0.20 0.18 0.18 0.18 0.18 0.18 0.18 0.18 0.18 0.18 0.20 0.20
0.56 0.56 0.56 0.54 0.52 0.50 0.48 0.42 0.40 0.38 0.36 0.34 0.32 0.32 0.32 0.30 0.30 0.30 0.30 0.30 0.30 0.28 0.28 0.26 0.24 0.24 0.22 0.22 0.20 0.20 0.20 0.20 0.20 0.20 0.20 0.20 0.20 0.20 0.22 0.22 0.22 0.22 0.22 0.22 0.22 0.22 0.22 0.22 0.22 0.22 0.24 0.22 0.22 0.22 0.22 0.20 0.20 0.18 0.18 0.18 0.18 0.18 0.18 0.18 0.18 0.18 0.20 0.20 0.22
0.56 0.54 0.54 0.52 0.50 0.46 0.44 0.38 0.36 0.34 0.32 0.32 0.30 0.30 0.30 0.30 0.30 0.30 0.30 0.30 0.30 0.28 0.26 0.24 0.24 0.22 0.22 0.20 0.20 0.20 0.20 0.20 0.20 0.20 0.20 0.22 0.22 0.22 0.22 0.22 0.20 0.20 0.20 0.22 0.22 0.22 0.22 0.22 0.22 0.22 0.22 0.22 0.22 0.22 0.22 0.20 0.20 0.18 0.18 0.18 0.18 0.18 0.18 0.20 0.20 0.20 0.22 0.22 0.22
0.54 0.52 0.50 0.48 0.46 0.42 0.38 0.34 0.32 0.32 0.30 0.30 0.30 0.30 0.30 0.30 0.30 0.30 0.30 0.30 0.28 0.28 0.26 0.24 0.22 0.20 0.20 0.20 0.20 0.20 0.20 0.20 0.22 0.22 0.22 0.22 0.22 0.22 0.22 0.22 0.20 0.20 0.20 0.20 0.20 0.20 0.22 0.22 0.22 0.22 0.22 0.22 0.22 0.22 0.20 0.20 0.20 0.18 0.18 0.18 0.18 0.18 0.20 0.20 0.22 0.22 0.22 0.22 0.22
0.52 0.50 0.46 0.44 0.40 0.38 0.34 0.32 0.30 0.30 0.30 0.30 0.30 0.30 0.30 0.30 0.30 0.30 0.28 0.28 0.26 0.26 0.24 0.22 0.20 0.20 0.20 0.20 0.20 0.20 0.20 0.20 0.22 0.22 0.22 0.22 0.22 0.22 0.22 0.22 0.20 0.20 0.20 0.20 0.20 0.20 0.22 0.22 0.22 0.22 0.22 0.22 0.22 0.22 0.20 0.20 0.18 0.18 0.18 0.18 0.18 0.20 0.20 0.22 0.22 0.22 0.22 0.20 0.18
Wind_Speed
17 17 17 17 17 17 16 16 16 16 17 17 17 17 17 17 17 18 18 19 19 19 20 20 21 21 21 21 22 23 23 24 25 25 26 26 27 27 28 28 29 29 30 30 31 32 32 33 34 34 35 36 36 37 37 38 38 39 39 39 40 40 40 40 40 41 41 41 42
17 17 17 17 17 16 16 16 16 16 16 17 17 17 17 17 17 18 18 19 19 20 20 20 21 21 21 22 22 23 24 25 25 26 26 27 27 28 29 29 30 30 31 31 32 32 33 34 34 35 36 36 37 38 38 38 39 39 40 40 40 40 40 41 41 41 42 42 42
17 17 17 17 17 16 16 16 16 16 16 16 16 17 17 17 18 18 18 19 19 20 20 20 21 21 22 22 23 24 24 25 26 26 27 28 28 29 29 30 30 31 31 32 33 33 34 34 35 36 36 37 38 38 39 39 39 40 40 40 41 41 41 41 41 42 42 43 43
17 17 17 17 16 16 16 16 16 16 16 16 16 17 17 17 18 18 19 19 20 20 20 21 21 22 22 23 24 25 25 26 26 27 28 28 29 30 30 31 31 32 32 33 33 34 35 35 36 36 37 38 38 39 39 40 40 40 40 41 41 41 41 42 42 43 43 43 44
17 17 17 17 16 16 16 16 16 16 16 16 16 17 17 18 18 19 19 20 20 20 21 21 22 22 23 24 24 25 26 26 27 28 28 29 30 30 31 31 32 32 33 34 34 35 35 36 37 37 38 38 39 39 40 40 40 41 41 41 41 42 42 42 43 43 44 44 44
17 17 17 16 16 16 16 16 16 16 16 17 17 17 18 18 19 19 19 20 20 21 21 22 22 23 24 24 25 26 26 27 28 28 29 30 30 31 31 32 32 33 34 34 35 35 36 37 37 38 38 39 39 40 40 40 41 41 41 42 42 42 43 43 44 44 44 44 45
17 17 17 16 16 16 16 16 16 16 17 17 17 18 18 19 19 19 20 20 21 21 22 22 23 24 24 25 26 26 27 28 29 29 30 30 31 32 32 33 33 34 34 35 35 36 37 37 38 39 39 40 40 40 41 41 41 42 42 42 43 43 43 44 44 45 45 45 45
17 17 16 16 16 16 16 16 17 17 17 18 18 18 19 19 19 20 20 21 21 22 22 23 24 24 25 26 26 27 28 29 29 30 31 31 32 32 33 33 34 34 35 36 36 37 37 38 38 39 40 40 40 41 41 41 42 42 42 43 43 44 44 44 45 45 45 45 45
17 17 17 16 16 16 17 17 17 18 18 18 19 19 19 19 20 20 21 21 22 22 23 24 24 25 26 26 27 28 29 29 30 31 31 32 32 33 33 34 35 35 36 36 37 37 38 39 39 39 40 40 41 41 42 42 42 43 43 43 44 44 45 45 45 45 45 45 45
17 17 17 17 17 17 17 17 18 18 18 19 19 19 19 20 20 21 21 22 22 23 24 24 25 26 26 27 28 29 29 30 31 32 32 33 33 34 34 35 35 36 37 37 38 38 39 39 39 40 40 41 41 42 42 42 43 43 44 44 44 45 45 45 45 45 45 45 45
17 17 17 17 17 17 18 18 18 19 19 19 19 19 20 20 21 21 22 22 23 24 24 25 26 26 27 28 29 29 30 31 32 32 33 33 34 34 35 35 36 37 37 38 38 39 39 39 40 40 41 41 41 42 42 43 43 44 44 45 45 45 46 45 45 45 45 45 45
17 17 17 17 18 18 18 19 19 19 19 19 19 20 20 21 21 22 22 23 24 24 25 26 26 27 28 29 29 30 31 32 32 33 33 34 34 35 35 36 37 37 38 38 39 39 39 40 40 41 41 42 42 42 43 43 44 44 45 45 45 45 45 46 45 45 45 45 45
17 17 17 18 18 18 19 19 19 19 19 19 20 20 20 21 22 22 23 23 24 25 26 26 27 28 28 29 30 31 32 32 33 33 34 34 35 35 36 37 37 38 38 39 39 39 40 40 41 41 42 42 42 43 43 44 44 45 45 46 46 46 46 45 45 45 45 45 45
17 17 18 18 18 19 19 19 19 19 20 20 20 20 21 22 22 23 23 24 25 26 26 27 28 28 29 30 31 32 32 33 34 34 34 35 35 36 37 37 38 38 38 39 39 40 40 41 41 41 42 42 43 43 44 44 45 45 45 46 46 46 46 45 45 45 45 46 46
17 17 18 18 18 19 19 19 19 20 20 20 20 21 21 22 23 23 24 25 25 26 27 28 28 29 30 31 32 32 33 34 34 35 35 35 36 36 37 37 38 38 39 39 39 40 40 41 41 42 42 43 44 44 45 45 45 45 45 45 45 45 45 45 45 46 46 46 47
17 18 18 18 19 19 19 19 19 20 20 20 21 21 22 23 23 24 25 25 26 27 28 28 29 30 31 32 32 33 34 34 35 35 35 36 36 37 37 38 38 38 39 39 40 40 41 41 41 42 43 43 44 45 45 45 45 45 45 45 45 45 45 46 46 46 47 47 48
17 18 18 19 19 19 19 19 20 20 20 21 21 22 23 23 24 25 25 26 27 28 28 29 30 31 32 32 33 34 34 35 35 35 36 36 37 37 37 38 38 39 39 40 40 41 41 42 42 43 43 44 44 45 45 45 45 45 45 45 45 45 45 46 46 47 48 48 49
18 18 18 19 19 19 19 19 20 20 21 21 22 22 23 24 24 25 26 27 27 28 29 30 31 32 32 33 34 34 35 35 35 36 36 36 37 37 37 38 38 39 39 40 41 41 42 42 43 43 44 44 45 45 45 45 45 45 45 45 45 45 46 47 47 48 48 49 50
18 18 19 19 19 19 19 20 20 21 21 22 22 23 24 24 25 26 27 27 28 29 30 31 32 32 33 34 34 35 35 35 35 36 36 36 37 37 38 38 39 39 40 40 41 42 42 43 43 44 44 44 45 45 44 44 44 44 45 45 46 46 47 47 48 49 49 50 50
18 18 19 19 19 19 20 20 20 21 22 22 23 24 24 25 26 26 27 28 29 30 30 31 32 33 34 34 35 35 35 35 35 35 36 36 37 37 38 38 39 40 40 41 41 42 43 43 44 44 44 44 44 44 44 44 44 45 45 46 46 47 48 48 49 49 50 50 51
18 19 19 19 19 20 20 20 21 21 22 23 23 24 25 26 26 27 28 29 30 30 31 32 33 33 34 34 35 35 35 35 35 35 36 36 37 38 38 39 40 40 41 41 42 42 43 44 44 44 44 44 44 44 44 44 45 45 46 46 47 48 48 49 49 50 50 51 51
19 19 19 20 20 20 21 21 21 22 22 23 24 25 25 26 27 28 29 30 30 31 32 32 33 34 34 34 34 34 35 35 35 35 36 37 37 38 39 39 40 41 41 42 42 43 43 44 44 44 44 43 43 44 44 45 45 46 47 47 48 49 49 49 50 50 51 51 52
19 19 20 20 20 20 21 21 22 22 23 24 24 25 26 27 28 29 29 30 31 32 32 33 33 34 34 34 34 34 34 35 35 36 36 37 38 39 39 40 40 41 42 42 43 43 43 44 43 43 43 43 43 44 44 45 46 47 48 48 49 49 50 50 50 51 51 52 52
19 20 20 20 21 21 21 22 22 23 23 24 25 26 27 28 28 29 30 31 31 32 33 33 33 34 34 34 34 34 34 35 36 36 37 38 38 39 40 40 41 41 42 42 43 43 43 43 43 43 43 43 44 44 45 46 47 48 48 49 50 50 50 51 51 51 52 52 53
20 20 20 20 21 21 22 22 23 23 24 25 26 27 27 28 29 30 30 31 32 32 33 33 33 33 33 33 34 34 35 35 36 37 38 38 39 40 40 41 41 42 42 42 43 43 43 43 42 43 43 44 44 45 46 47 47 48 49 49 50 51 51 52 52 52 52 53 54
20 20 20 21 21 21 22 22 23 24 25 25 26 27 28 29 29 30 31 31 32 32 33 33 33 33 33 33 34 35 35 36 37 38 38 39 40 40 41 41 41 42 42 42 43 43 43 43 43 43 44 44 45 46 47 47 48 49 49 50 50 51 52 52 53 53 53 54 54
20 20 21 21 21 22 22 23 24 24 25 26 27 28 29 29 30 30 31 31 32 32 32 32 32 33 33 34 34 35 36 37 37 38 39 39 40 40 41 41 41 42 42 42 42 42 43 43 44 44 45 45 46 47 47 48 49 49 50 50 51 52 52 53 53 54 54 54 55
20 20 21 21 21 22 23 24 24 25 26 27 28 28 29 30 30 31 31 31 32 32 32 32 32 33 34 34 35 36 37 37 38 39 39 40 40 41 41 41 41 41 41 42 42 42 43 43 44 45 46 46 46 47 47 48 49 50 50 51 52 52 53 53 54 54 54 55 55
20 20 21 21 22 23 23 24 25 26 27 28 28 29 29 30 30 31 31 31 31 31 32 32 33 34 34 35 36 36 37 38 38 39 39 40 40 41 41 41 41 41 41 42 42 43 43 44 45 46 46 47 47 47 48 48 49 50 51 51 52 53 53 54 54 54 55 55 56
20 21 21 21 22 23 24 25 26 27 27 28 29 29 30 30 30 30 31 31 31 31 32 33 33 34 35 36 36 37 38 38 39 39 40 40 40 40 40 40 40 40 41 42 42 43 44 45 46 46 47 48 48 48 48 49 50 51 51 52 53 53 54 54 54 54 55 56 56
20 21 21 22 23 23 24 25 26 27 28 28 29 29 29 30 30 30 30 31 31 32 33 33 34 35 35 36 37 37 38 39 39 39 40 40 40 40 40 40 40 40 41 42 43 44 45 45 46 47 48 48 48 48 49 50 50 51 52 52 53 54 54 54 54 55 56 56 57
21 21 22 22 23 24 25 26 27 28 28 28 29 29 29 29 29 30 30 31 32 32 33 34 34 35 36 37 37 38 38 39 39 39 39 39 39 39 39 40 40 41 41 43 44 44 45 46 47 48 48 49 49 49 49 50 51 52 52 53 53 54 54 54 55 55 56 57 57
21 22 22 23 24 25 26 27 27 28 28 28 28 29 29 29 30 30 31 31 32 33 33 34 35 36 36 37 38 38 38 39 39 39 39 39 39 39 39 40 40 41 42 43 44 45 46 47 48 48 49 49 49 49 50 51 51 52 53 53 54 54 54 55 55 56 56 57 58
21 22 23 24 24 25 26 27 27 28 28 28 28 28 29 29 30 30 31 32 32 33 34 35 35 36 36 37 37 38 38 38 38 38 38 38 39 39 39 40 41 42 43 44 45 46 47 47 48 49 50 50 50 50 51 51 52 52 53 53 54 54 55 55 55 56 57 57 58
22 23 23 24 25 26 26 27 27 27 27 28 28 28 29 29 30 31 32 32 33 34 34 35 35 36 37 37 37 37 38 38 38 38 38 38 39 39 40 41 41 42 44 45 46 47 47 48 49 50 50 50 50 51 51 52 52 53 53 54 54 55 55 56 56 57 57 58 58
22 23 24 24 25 26 26 26 27 27 27 27 28 29 29 30 31 31 32 33 33 34 35 35 36 36 37 37 37 37 37 37 38 38 38 38 39 40 40 41 42 43 44 45 46 47 48 49 50 50 51 51 51 51 52 52 52 53 54 54 55 55 56 56 57 57 58 58 58
23 23 24 24 25 25 26 26 26 26 27 27 28 29 30 30 31 32 32 33 34 34 35 35 36 36 36 37 37 37 37 37 37 38 38 39 39 40 41 42 43 44 45 46 47 48 49 49 50 51 51 51 51 51 52 52 53 53 54 55 55 56 56 57 57 58 58 58 58
23 23 24 24 24 25 25 26 26 26 27 28 29 29 30 31 31 32 33 33 34 34 35 35 36 36 36 36 36 36 36 37 37 38 38 39 40 41 42 43 43 44 45 47 48 49 49 50 51 51 51 51 51 52 52 53 53 54 55 55 56 57 57 57 57 58 58 57 57
23 23 23 24 24 25 25 25 26 27 27 28 29 30 30 31 32 32 33 33 34 34 35 35 35 35 36 36 36 36 36 37 37 38 39 40 41 42 42 43 44 45 46 47 48 49 50 50 51 51 52 52 52 52 53 53 54 54 55 56 57 57 58 58 58 57 57 56 55
22 23 23 23 24 24 25 26 26 27 28 28 29 30 30 31 32 32 33 33 34 34 34 34 35 35 35 35 36 36 37 37 38 38 39 40 41 42 43 44 45 46 47 48 49 49 50 51 51 52 52 52 52 52 53 53 54 55 56 56 57 58 58 58 57 56 55 55 54
22 23 23 23 24 24 25 26 26 27 28 28 29 30 31 31 32 32 33 33 33 34 34 34 34 35 35 35 36 36 37 38 38 39 40 41 42 43 44 44 45 46 47 48 49 50 50 51 51 52 52 52 52 53 53 54 55 56 56 57 58 58 58 58 57 55 54 53 53
Wind_Direction
235 238 240 243 246 249 252 255 259 262 265 269 272 275 279 282 284 287 289 291 293 295 297 299 300 302 303 305 306 307 308 309 309 310 310 310 310 310 309 309 309 309 308 308 308 308 308 308 308 308 308 309 309 309 309 310 310 310 310 310 310 310 309 309 309 309 309 309 308
236 239 242 244 247 250 253 257 260 264 268 271 275 278 281 283 286 288 290 292 294 296 298 299 301 302 304 305 306 307 308 309 309 309 310 310 310 310 309 309 309 308 308 308 308 308 308 308 308 308 309 309 309 310 310 310 310 310 310 310 310 309 309 309 309 309 309 309 309
238 240 243 245 248 251 255 258 262 266 270 274 277 280 283 285 287 289 291 293 295 297 298 300 301 302 304 305 306 308 308 309 309 309 310 310 310 309 309 309 308 308 308 308 308 308 308 308 308 309 309 309 310 310 310 310 310 310 310 310 309 309 309 309 309 309 309 309 309
239 241 243 246 248 252 256 260 264 268 272 276 279 282 284 286 289 290 292 294 296 297 298 300 301 303 304 305 307 308 308 309 309 309 310 310 309 309 309 308 308 308 308 308 308 308 308 308 308 309 309 309 310 310 310 310 310 310 310 309 309 309 309 309 309 309 310 309 309
239 242 244 247 251 255 259 263 266 270 274 277 280 283 285 288 290 291 293 295 296 297 298 300 301 303 304 306 307 308 308 309 309 309 309 309 309 309 308 308 308 308 308 308 308 308 308 308 308 309 309 309 310 310 310 310 310 310 309 309 309 309 309 310 310 310 310 310 310
240 243 246 249 253 258 262 266 268 272 275 278 281 283 286 288 290 292 293 294 296 297 298 300 301 303 304 306 307 308 308 309 309 309 309 309 309 308 308 308 308 308 308 308 308 308 308 308 309 309 309 309 310 309 309 310 310 310 310 310 310 310 310 310 310 310 310 310 310
240 243 247 251 255 260 264 267 270 273 276 279 281 283 285 288 290 292 293 295 296 297 299 300 302 303 305 306 307 307 308 308 309 309 309 309 308 308 308 308 308 308 308 308 308 308 308 309 309 309 309 310 310 310 310 310 310 310 310 310 310 310 310 311 311 311 310 310 309
242 245 249 253 257 261 265 268 271 274 277 279 281 283 286 288 290 292 294 295 296 297 299 301 302 304 305 306 306 307 308 308 308 308 308 308 308 308 308 308 308 308 308 308 308 308 308 309 309 309 310 310 310 310 310 310 310 310 310 310 310 311 311 311 311 311 310 310 309
244 248 252 256 260 264 267 270 272 274 276 279 281 284 286 289 291 293 294 295 297 298 300 301 303 304 305 305 306 307 307 308 308 308 308 308 308 308 308 308 308 308 308 308 308 308 309 309 309 309 309 310 310 310 310 310 310 310 310 310 311 311 311 311 311 311 310 310 309
245 249 254 258 262 266 269 271 273 275 277 279 282 284 287 289 291 293 294 296 297 299 301 302 303 304 305 305 306 307 307 308 308 308 308 308 308 308 308 308 308 308 308 308 308 309 309 309 309 309 310 310 310 310 310 310 310 310 311 311 311 311 311 311 311 311 310 310 309
247 251 256 260 264 267 269 272 274 276 278 280 282 285 287 289 291 293 295 297 298 300 301 302 303 304 305 305 306 307 307 308 308 308 308 308 308 308 308 308 308 308 308 308 308 309 309 309 310 310 310 310 310 310 310 310 311 311 311 311 311 311 311 311 311 311 310 310 310
250 254 258 262 265 268 270 272 274 276 278 280 282 285 288 290 292 294 296 297 299 300 301 302 303 304 304 305 306 307 307 308 308 308 308 308 308 308 308 308 308 308 308 308 309 309 309 310 310 310 310 310 310 310 310 311 311 311 311 311 312 311 311 311 311 311 310 310 310
252 257 260 264 266 269 271 272 274 276 278 280 283 285 288 290 292 294 296 298 299 300 301 302 303 304 304 305 306 307 307 308 308 308 308 308 308 308 308 308 308 308 308 309 309 309 310 310 310 310 310 310 310 311 311 311 311 311 312 312 312 312 311 311 311 311 311 310 310
255 258 262 265 267 269 271 273 274 276 278 281 283 286 289 291 293 295 297 298 299 300 301 302 303 304 304 305 306 307 307 308 308 308 308 308 308 308 308 308 308 308 309 309 309 309 310 310 310 310 310 310 311 311 311 311 312 312 312 312 312 312 311 311 311 311 311 311 310
256 260 263 265 268 269 271 273 275 277 279 281 284 287 290 292 294 296 297 299 300 300 301 302 303 304 304 305 306 307 307 307 308 308 308 308 308 308 308 308 308 309 309 309 310 310 310 310 310 310 310 311 311 311 311 312 312 312 312 312 312 312 312 311 311 311 311 311 311
257 261 263 266 268 270 271 273 275 278 280 283 286 288 291 293 295 296 298 299 300 300 301 302 303 304 305 306 306 307 307 307 307 308 308 308 308 308 308 308 309 309 309 310 310 310 310 310 310 310 311 311 311 311 312 312 312 312 312 312 312 312 312 312 311 311 311 311 311
258 261 264 266 268 270 272 274 276 279 281 284 287 289 292 293 295 297 298 299 300 301 301 302 303 304 305 306 306 307 307 307 307 308 308 308 308 308 308 309 309 309 310 310 310 310 310 310 311 311 311 311 311 312 312 312 312 312 312 312 312 312 312 312 312 311 311 311 311
259 262 264 266 268 270 272 275 278 280 283 286 288 291 293 294 296 297 298 299 300 301 302 302 303 304 305 306 306 307 307 307 307 308 308 308 308 308 309 309 309 310 310 310 311 311 311 311 311 311 311 312 312 312 312 312 312 312 312 312 312 312 312 312 312 312 311 311 311
260 262 265 267 269 271 274 276 279 282 284 287 289 292 294 295 296 297 298 299 300 301 302 303 303 304 305 306 306 307 307 307 307 308 308 308 308 309 309 309 310 310 310 311 311 311 311 311 311 312 312 312 312 312 312 312 312 312 312 312 312 312 312 312 312 312 312 311 311
261 263 265 268 270 273 275 278 280 283 286 288 291 293 294 296 297 298 299 299 300 301 302 303 304 305 305 306 306 307 307 307 307 308 308 308 308 309 309 310 310 311 311 311 311 311 311 311 312 312 312 311 312 312 312 312 312 312 312 313 313 313 312 312 312 312 312 312 312
262 264 267 269 272 274 277 280 282 285 287 290 292 293 295 296 297 298 299 299 300 301 302 303 304 305 305 306 306 307 307 307 307 308 308 308 309 309 310 310 311 311 311 311 311 311 311 311 311 311 311 311 312 312 312 312 313 313 313 313 313 313 313 313 313 313 312 312 312
263 266 268 271 273 276 279 281 284 287 289 291 293 294 295 296 297 298 298 299 300 301 302 303 304 305 305 306 306 306 307 307 307 308 308 309 309 310 310 311 311 312 312 312 312 312 311 311 311 311 311 312 312 312 312 313 313 313 313 313 313 313 313 313 313 313 313 313 313
265 267 270 273 275 278 281 283 286 288 290 292 293 295 296 296 297 298 299 300 301 302 303 304 304 305 305 305 306 306 307 307 307 308 309 309 310 310 311 311 312 312 312 312 312 312 311 311 311 311 312 312 312 313 313 313 314 314 314 314 314 314 314 314 314 314 314 314 314
266 269 272 275 277 280 282 285 287 289 291 292 294 295 295 296 297 298 299 300 302 303 303 304 304 305 305 305 306 306 307 307 308 309 309 310 310 311 311 312 312 312 312 312 312 312 312 312 312 312 312 312 313 313 314 314 314 314 315 315 315 315 315 314 314 314 314 314 314
268 271 274 277 279 281 284 286 288 290 291 293 294 295 296 297 298 299 300 301 302 303 303 304 304 304 305 305 306 307 307 308 309 309 310 311 311 311 312 312 312 312 312 312 312 312 312 312 312 312 313 313 313 314 314 315 315 315 315 315 315 315 315 315 315 315 315 315 315
270 273 276 278 281 283 285 287 289 290 292 293 294 295 296 297 298 299 301 302 302 303 303 304 304 305 305 306 306 307 308 309 310 310 311 311 312 312 312 312 312 312 312 312 312 312 312 312 313 313 313 314 314 315 315 315 315 315 316 316 316 316 315 315 315 315 315 315 315
272 275 277 280 282 284 286 288 289 291 292 294 295 296 297 298 299 300 301 302 302 303 303 304 304 305 306 306 307 308 309 310 310 311 311 311 312 312 312 312 312 311 312 312 312 312 312 313 313 314 314 314 315 315 315 316 316 316 316 316 316 316 316 316 316 316 316 316 316
273 276 278 281 283 285 287 288 290 292 293 294 296 297 298 299 300 300 301 302 302 303 303 304 304 305 306 307 308 309 310 310 311 311 311 311 312 312 312 311 311 311 312 312 312 312 313 313 314 315 315 315 315 315 316 316 316 316 317 317 317 316 316 316 316 316 316 316 316
275 277 279 282 284 286 288 290 291 293 294 295 296 297 298 299 300 301 301 302 302 303 304 304 305 306 307 308 309 309 310 310 311 311 311 311 311 311 311 311 311 311 312 312 312 313 313 314 315 315 316 316 316 316 316 316 317 317 317 317 317 317 317 317 317 317 317 316 316
276 278 280 282 285 287 289 291 292 294 295 296 297 298 299 299 300 301 301 302 303 303 304 305 306 307 308 309 309 310 310 310 311 311 311 311 311 311 311 311 311 312 312 313 313 314 314 315 315 316 316 316 316 316 316 317 317 317 317 317 317 317 317 317 317 317 317 317 317
277 279 281 283 286 288 290 292 293 294 295 296 297 298 299 300 300 301 302 302 303 304 305 306 307 308 308 309 309 310 310 310 311 311 311 311 312 312 311 311 312 312 312 313 314 314 315 315 316 316 316 317 317 317 317 317 317 317 317 318 318 318 318 317 317 317 317 317 317
278 280 283 285 287 289 291 292 294 295 296 297 298 299 299 300 301 301 302 303 304 305 306 307 308 308 309 309 309 310 310 310 311 311 311 311 311 311 312 312 312 312 313 314 314 315 315 316 316 316 317 317 317 317 317 317 317 317 318 318 318 318 318 318 318 317 317 317 318
280 282 284 286 288 290 292 293 294 295 296 297 298 299 300 301 301 302 303 304 305 306 307 307 308 308 309 309 309 310 310 311 311 311 311 311 311 312 312 312 313 313 314 315 315 315 316 316 316 317 317 317 317 317 317 317 317 318 318 318 318 318 318 318 318 318 318 318 318
281 284 286 288 290 291 293 294 295 296 297 298 299 300 301 301 302 303 304 305 305 306 307 307 308 308 309 309 309 310 310 311 311 311 311 311 312 312 312 313 313 314 315 315 316 316 316 317 317 317 317 317 317 317 317 317 318 318 318 318 318 318 318 318 318 318 318 318 318
283 285 287 289 291 292 294 295 296 297 298 299 300 301 301 302 303 304 305 305 306 306 307 307 308 308 308 309 310 310 311 311 311 311 311 312 312 313 313 314 314 315 315 316 316 316 317 317 317 317 318 318 317 317 317 318 318 318 318 318 318 318 319 319 319 319 319 318 318
284 286 288 290 292 293 294 295 296 298 299 300 301 302 302 303 304 304 305 306 306 306 307 307 308 308 309 310 310 311 311 311 311 311 312 312 313 313 314 314 315 315 316 316 317 317 317 317 317 318 318 318 318 317 318 318 318 318 318 318 318 319 319 319 319 319 319 318 318
286 288 290 291 293 294 295 296 297 298 300 301 301 302 303 304 304 305 305 306 306 307 307 308 308 309 310 310 310 311 311 311 311 312 312 313 313 314 315 315 315 316 316 317 317 317 317 318 318 318 318 318 318 318 318 318 318 318 318 318 319 319 319 319 319 319 318 318 318
288 290 291 292 294 295 296 297 298 299 300 301 302 302 303 304 304 305 305 306 306 307 307 308 309 309 310 310 310 311 311 311 312 312 313 314 314 315 315 315 316 316 316 317 317 317 318 318 318 318 318 318 318 318 318 318 318 318 318 319 319 319 319 319 319 319 319 319 319
289 291 292 293 294 296 297 298 299 300 301 301 302 303 303 304 305 305 306 306 307 307 308 308 309 309 310 310 311 311 312 312 313 313 314 314 315 315 316 316 316 316 317 317 318 318 318 318 318 318 318 318 318 318 318 318 318 318 319 319 319 319 319 319 319 319 319 319 319
291 292 293 294 295 296 297 298 299 300 301 302 303 303 304 304 305 305 306 306 307 308 308 309 309 310 310 311 311 312 312 313 313 314 315 315 315 316 316 316 316 317 317 318 318 318 318 318 319 319 318 318 318 318 318 319 319 319 319 319 319 319 319 319 319 320 320 320 320
292 293 294 295 296 297 298 299 300 300 301 302 303 304 304 304 305 305 306 307 307 308 309 309 309 310 311 311 312 313 313 314 314 315 315 316 316 316 316 317 317 317 317 318 318 318 318 319 319 319 319 319 319 319 319 319 319 319 319 319 320 320 320 320 320 320 320 320 320